�������l�o���
Date,Time,MP-1(��Sv/h),MP-2(��Sv/h),MP-3(��Sv/h),MP-4(��Sv/h),MP-5(��Sv/h),MP-6(��Sv/h),MP-7(��Sv/h),MP-8(��Sv/h),����,����(m/s),���J
2021/10/22,00:00,0.581,0.871,0.553,1.065,0.750,0.356,0.619,0.583,�k��,5.7,��
2021/10/22,00:10,0.582,0.873,0.554,1.064,0.749,0.356,0.618,0.582,���k��,5.3,��
2021/10/22,00:20,0.580,0.870,0.555,1.065,0.750,0.355,0.617,0.582,���k��,5.3,��
2021/10/22,00:30,0.581,0.869,0.554,1.065,0.749,0.356,0.618,0.582,�k��,5.4,��
2021/10/22,00:40,0.583,0.869,0.555,1.066,0.749,0.356,0.620,0.583,���k��,4.5,��
2021/10/22,00:50,0.582,0.868,0.556,1.065,0.749,0.356,0.618,0.582,���k��,5.4,��
2021/10/22,01:00,0.582,0.870,0.555,1.067,0.752,0.358,0.618,0.581,���k��,5.3,��
2021/10/22,01:10,0.581,0.870,0.556,1.066,0.750,0.357,0.618,0.581,���k��,4.1,��
2021/10/22,01:20,0.580,0.869,0.555,1.065,0.751,0.355,0.618,0.582,�k��,3.7,��
2021/10/22,01:30,0.581,0.870,0.555,1.065,0.750,0.356,0.620,0.582,�k�k��,3.3,��
2021/10/22,01:40,0.582,0.871,0.553,1.065,0.750,0.356,0.618,0.581,�k��,2.8,��
2021/10/22,01:50,0.581,0.871,0.553,1.065,0.748,0.356,0.618,0.582,���k��,3.2,��
2021/10/22,02:00,0.582,0.869,0.555,1.065,0.749,0.356,0.620,0.581,��,3.5,��
2021/10/22,02:10,0.581,0.870,0.555,1.064,0.749,0.356,0.619,0.584,���k��,3.4,��
2021/10/22,02:20,0.581,0.870,0.557,1.066,0.751,0.356,0.617,0.581,���k��,3.1,��
2021/10/22,02:30,0.581,0.870,0.554,1.065,0.750,0.356,0.621,0.581,���k��,3.8,��
2021/10/22,02:40,0.582,0.870,0.555,1.064,0.750,0.357,0.621,0.582,���k��,3.7,��
2021/10/22,02:50,0.583,0.869,0.556,1.065,0.749,0.355,0.620,0.582,�k��,4.1,��
2021/10/22,03:00,0.581,0.871,0.554,1.063,0.751,0.357,0.618,0.581,�k��,4.4,��
2021/10/22,03:10,0.581,0.871,0.555,1.064,0.752,0.356,0.619,0.583,�k��,4.7,��
2021/10/22,03:20,0.582,0.872,0.554,1.065,0.750,0.356,0.620,0.583,�k��,4.5,��
2021/10/22,03:30,0.582,0.869,0.556,1.065,0.749,0.356,0.619,0.581,�k��,4.9,��
2021/10/22,03:40,0.580,0.870,0.554,1.066,0.748,0.356,0.619,0.581,�k��,4.9,��
2021/10/22,03:50,0.583,0.871,0.553,1.065,0.750,0.356,0.619,0.583,�k�k��,4.2,��
2021/10/22,04:00,0.582,0.871,0.555,1.065,0.751,0.356,0.618,0.581,�k�k��,3.5,��
2021/10/22,04:10,0.580,0.871,0.554,1.064,0.751,0.357,0.619,0.583,�k�k��,3.1,��
2021/10/22,04:20,0.582,0.870,0.554,1.066,0.751,0.355,0.619,0.581,�k��,3.3,��
2021/10/22,04:30,0.583,0.870,0.555,1.067,0.752,0.356,0.617,0.585,�k�k��,3.4,��
2021/10/22,04:40,0.582,0.870,0.555,1.065,0.748,0.356,0.619,0.584,�k�k��,3.6,��
2021/10/22,04:50,0.581,0.871,0.553,1.066,0.751,0.357,0.620,0.580,�k�k��,3.9,��
2021/10/22,05:00,0.581,0.870,0.554,1.066,0.749,0.356,0.619,0.581,�k��,3.8,��
2021/10/22,05:10,0.583,0.873,0.554,1.064,0.750,0.357,0.618,0.581,�k�k��,3.9,��
2021/10/22,05:20,0.583,0.871,0.555,1.066,0.748,0.356,0.618,0.581,�k�k��,3.6,��
2021/10/22,05:30,0.582,0.871,0.554,1.066,0.749,0.357,0.618,0.581,�k�k��,3.3,��
2021/10/22,05:40,0.583,0.870,0.554,1.065,0.752,0.355,0.618,0.582,�k��,3.1,��
2021/10/22,05:50,0.584,0.869,0.556,1.066,0.748,0.356,0.621,0.580,�k��,3.1,��
2021/10/22,06:00,0.583,0.868,0.554,1.067,0.748,0.354,0.619,0.582,�k��,3.6,��
2021/10/22,06:10,0.583,0.869,0.555,1.068,0.751,0.356,0.619,0.582,�k��,3.9,��
2021/10/22,06:20,0.582,0.870,0.555,1.066,0.751,0.356,0.618,0.582,�k��,3.3,��
2021/10/22,06:30,0.581,0.872,0.554,1.067,0.751,0.356,0.619,0.582,�k��,3.3,��
2021/10/22,06:40,0.581,0.869,0.554,1.066,0.749,0.357,0.621,0.580,�k�k��,3.4,��
2021/10/22,06:50,0.582,0.869,0.555,1.066,0.749,0.356,0.619,0.582,�k�k��,3.9,��
2021/10/22,07:00,0.582,0.871,0.555,1.066,0.751,0.356,0.620,0.582,�k�k��,3.9,��
2021/10/22,07:10,0.584,0.870,0.555,1.069,0.749,0.357,0.621,0.581,�k�k��,4.1,��
2021/10/22,07:20,0.582,0.871,0.554,1.067,0.750,0.357,0.620,0.582,�k�k��,4.3,��
2021/10/22,07:30,0.582,0.873,0.555,1.067,0.752,0.355,0.619,0.582,�k�k��,4.8,��
2021/10/22,07:40,0.582,0.872,0.555,1.067,0.750,0.357,0.619,0.581,�k�k��,4.9,��
2021/10/22,07:50,0.582,0.871,0.554,1.065,0.749,0.356,0.620,0.583,�k��,3.6,��
2021/10/22,08:00,0.581,0.871,0.555,1.068,0.750,0.354,0.619,0.583,�k��,2.9,��
2021/10/22,08:10,0.581,0.873,0.556,1.065,0.750,0.355,0.621,0.580,�k��,3.1,��
2021/10/22,08:20,0.582,0.871,0.555,1.067,0.749,0.353,0.621,0.582,�k��,3.0,��
2021/10/22,08:30,0.581,0.870,0.554,1.068,0.751,0.353,0.619,0.582,�k��,4.0,��
2021/10/22,08:40,0.584,0.869,0.554,1.067,0.749,0.354,0.619,0.582,�k��,2.3,��
2021/10/22,08:50,0.582,0.868,0.556,1.067,0.751,0.353,0.618,0.584,�k��,2.9,��
2021/10/22,09:00,0.583,0.869,0.554,1.068,0.750,0.353,0.618,0.583,�k��,3.6,��
2021/10/22,09:10,0.583,0.869,0.555,1.067,0.750,0.355,0.618,0.582,�k��,2.6,��
2021/10/22,09:20,0.585,0.869,0.557,1.068,0.750,0.356,0.619,0.583,�k��,3.3,��
2021/10/22,09:30,0.584,0.869,0.554,1.065,0.754,0.357,0.618,0.584,�k��,3.2,��
2021/10/22,09:40,0.583,0.868,0.555,1.069,0.752,0.358,0.620,0.582,�k�k��,2.3,��
2021/10/22,09:50,0.584,0.869,0.556,1.067,0.752,0.356,0.618,0.580,�k�k��,1.9,��
2021/10/22,10:00,0.584,0.867,0.557,1.067,0.751,0.356,0.618,0.582,�k�k��,2.3,��
2021/10/22,10:10,0.583,0.867,0.555,1.066,0.751,0.355,0.620,0.582,�k,1.7,��
2021/10/22,10:20,0.583,0.866,0.557,1.065,0.751,0.353,0.619,0.582,�k,3.3,�L
2021/10/22,10:30,0.584,0.865,0.556,1.067,0.751,0.355,0.618,0.583,�k,3.4,�L
2021/10/22,10:40,0.581,0.868,0.555,1.068,0.750,0.356,0.619,0.583,�k,3.6,�L
2021/10/22,10:50,0.582,0.867,0.557,1.067,0.751,0.353,0.618,0.582,�k,3.9,�L
2021/10/22,11:00,0.582,0.868,0.556,1.067,0.749,0.355,0.619,0.583,�k,4.0,�L
2021/10/22,11:10,0.581,0.868,0.558,1.067,0.749,0.355,0.618,0.582,�k,4.6,��
2021/10/22,11:20,0.581,0.868,0.556,1.066,0.751,0.356,0.617,0.582,�k,4.1,�L
2021/10/22,11:30,0.582,0.867,0.556,1.068,0.750,0.356,0.618,0.581,�k,3.9,�L
2021/10/22,11:40,0.582,0.867,0.548,1.067,0.750,0.355,0.619,0.581,�k�k��,3.9,�L
2021/10/22,11:50,0.582,0.870,0.551,1.069,0.751,0.355,0.619,0.580,�k�k��,3.3,�L
2021/10/22,12:00,0.583,0.866,0.558,1.062,0.749,0.356,0.618,0.579,�k,2.2,��
2021/10/22,12:10,0.583,0.870,0.557,1.065,0.751,0.355,0.617,0.581,�k,2.6,�L
2021/10/22,12:20,0.582,0.869,0.554,1.065,0.747,0.355,0.617,0.582,�k�k��,3.4,�L
2021/10/22,12:30,0.583,0.869,0.557,1.068,0.743,0.355,0.618,0.581,�k�k��,2.9,�L
2021/10/22,12:40,0.581,0.870,0.556,1.066,0.748,0.356,0.616,0.581,�k�k��,3.9,�L
2021/10/22,12:50,0.582,0.867,0.557,1.069,0.752,0.356,0.617,0.582,�k��,4.4,�L
2021/10/22,13:00,0.583,0.868,0.559,1.070,0.750,0.357,0.618,0.582,�k�k��,3.4,�L
2021/10/22,13:10,0.584,0.868,0.557,1.068,0.748,0.357,0.619,0.581,�k�k��,3.9,�L
2021/10/22,13:20,0.583,0.869,0.558,1.069,0.751,0.357,0.619,0.580,�k�k��,3.7,�L
2021/10/22,13:30,0.584,0.872,0.556,1.068,0.751,0.358,0.618,0.582,�k�k��,4.1,�L
2021/10/22,13:40,0.586,0.870,0.556,1.067,0.753,0.358,0.618,0.582,�k�k��,2.9,�L
2021/10/22,13:50,0.585,0.871,0.555,1.069,0.752,0.358,0.617,0.583,�k��,3.7,�L
2021/10/22,14:00,0.585,0.867,0.557,1.068,0.750,0.358,0.617,0.583,�k��,3.4,�L
2021/10/22,14:10,0.583,0.865,0.557,1.066,0.747,0.361,0.617,0.583,��,2.9,�L
2021/10/22,14:20,0.583,0.860,0.555,1.065,0.746,0.358,0.615,0.580,�k��,5.8,�L
2021/10/22,14:30,0.582,0.857,0.553,1.061,0.744,0.359,0.615,0.580,�k��,2.9,�L
2021/10/22,14:40,0.582,0.856,0.554,1.059,0.741,0.359,0.613,0.579,�k��,1.9,�L
2021/10/22,14:50,0.580,0.855,0.553,1.055,0.740,0.359,0.612,0.577,�k,2.3,�L
2021/10/22,15:00,0.580,0.854,0.550,1.056,0.740,0.358,0.613,0.579,�k,1.2,�L
2021/10/22,15:10,0.578,0.852,0.549,1.054,0.739,0.358,0.611,0.578,�k�k��,0.8,�L
2021/10/22,15:20,0.577,0.850,0.548,1.053,0.736,0.357,0.611,0.580,��,1.7,�L
2021/10/22,15:30,0.575,0.850,0.548,1.049,0.737,0.356,0.611,0.578,��,2.0,�L
2021/10/22,15:40,0.574,0.848,0.548,1.048,0.734,0.356,0.610,0.577,���k��,1.5,�L
2021/10/22,15:50,0.574,0.850,0.548,1.048,0.736,0.355,0.610,0.577,�k�k��,2.0,�L
2021/10/22,16:00,0.573,0.850,0.546,1.046,0.732,0.355,0.609,0.576,�k�k��,2.2,�L
2021/10/22,16:10,0.573,0.848,0.546,1.046,0.734,0.354,0.609,0.576,�k��,1.2,�L
2021/10/22,16:20,0.574,0.846,0.545,1.047,0.732,0.353,0.609,0.577,�k�k��,1.1,�L
2021/10/22,16:30,0.573,0.847,0.545,1.045,0.733,0.353,0.611,0.575,�k��,1.7,�L
2021/10/22,16:40,0.570,0.845,0.546,1.044,0.732,0.354,0.609,0.577,�k�k��,1.9,�L
2021/10/22,16:50,0.572,0.842,0.546,1.043,0.730,0.353,0.607,0.574,�k�k��,2.0,�L
2021/10/22,17:00,0.573,0.843,0.546,1.040,0.730,0.354,0.608,0.574,�k�k��,1.7,�L
2021/10/22,17:10,0.570,0.841,0.545,1.039,0.729,0.352,0.606,0.574,�k�k��,2.2,�L
2021/10/22,17:20,0.568,0.842,0.543,1.040,0.729,0.352,0.608,0.574,�k�k��,2.2,�L
2021/10/22,17:30,0.568,0.842,0.544,1.039,0.729,0.353,0.608,0.573,�k��,3.0,�L
2021/10/22,17:40,0.569,0.838,0.545,1.036,0.728,0.354,0.607,0.573,�k��,2.6,�L
2021/10/22,17:50,0.569,0.840,0.544,1.035,0.727,0.354,0.604,0.570,�k��,2.5,�L
2021/10/22,18:00,0.569,0.840,0.543,1.033,0.724,0.355,0.606,0.570,�k�k��,2.2,�L
2021/10/22,18:10,0.567,0.840,0.543,1.033,0.725,0.354,0.605,0.573,�k�k��,3.2,�L
2021/10/22,18:20,0.568,0.840,0.543,1.030,0.727,0.355,0.605,0.572,�k�k��,4.0,�L
2021/10/22,18:30,0.568,0.841,0.544,1.031,0.725,0.354,0.607,0.573,�k�k��,2.8,�L
2021/10/22,18:40,0.567,0.840,0.543,1.029,0.726,0.354,0.605,0.573,�k�k��,2.3,�L
2021/10/22,18:50,0.568,0.841,0.542,1.031,0.727,0.353,0.605,0.573,�k��,3.1,�L
2021/10/22,19:00,0.566,0.839,0.542,1.031,0.725,0.351,0.605,0.574,�k�k��,3.4,�L
2021/10/22,19:10,0.567,0.840,0.542,1.028,0.726,0.351,0.605,0.573,�k��,3.7,�L
2021/10/22,19:20,0.566,0.839,0.542,1.030,0.725,0.352,0.604,0.574,�k�k��,3.3,�L
2021/10/22,19:30,0.566,0.842,0.541,1.031,0.727,0.349,0.604,0.573,�k��,3.0,�L
2021/10/22,19:40,0.566,0.840,0.540,1.032,0.726,0.350,0.605,0.573,���k��,4.6,�L
2021/10/22,19:50,0.566,0.840,0.539,1.029,0.725,0.349,0.606,0.572,�k��,3.8,�L
2021/10/22,20:00,0.568,0.838,0.541,1.030,0.726,0.351,0.607,0.573,�k��,3.7,��
2021/10/22,20:10,0.565,0.840,0.539,1.030,0.728,0.350,0.608,0.573,�k��,3.3,�L
2021/10/22,20:20,0.565,0.840,0.538,1.031,0.726,0.352,0.606,0.572,�k��,3.5,��
2021/10/22,20:30,0.565,0.840,0.540,1.032,0.726,0.350,0.606,0.572,���k��,4.6,��
2021/10/22,20:40,0.564,0.839,0.539,1.032,0.728,0.349,0.605,0.572,�k��,4.2,��
2021/10/22,20:50,0.566,0.840,0.539,1.031,0.726,0.349,0.606,0.570,�k��,4.6,�L
2021/10/22,21:00,0.565,0.840,0.539,1.035,0.728,0.349,0.607,0.574,�k��,3.8,�L
2021/10/22,21:10,0.565,0.843,0.539,1.030,0.727,0.349,0.608,0.572,�k��,4.2,�L
2021/10/22,21:20,0.566,0.840,0.542,1.033,0.728,0.350,0.607,0.572,�k��,4.8,�L
2021/10/22,21:30,0.565,0.841,0.539,1.032,0.728,0.350,0.607,0.573,�k��,4.9,�L
2021/10/22,21:40,0.566,0.841,0.540,1.033,0.727,0.351,0.608,0.573,�k��,3.9,�L
2021/10/22,21:50,0.564,0.839,0.539,1.032,0.728,0.352,0.607,0.571,�k��,3.9,�L
2021/10/22,22:00,0.564,0.843,0.539,1.033,0.728,0.351,0.608,0.573,�k��,5.1,�L
2021/10/22,22:10,0.565,0.842,0.540,1.035,0.725,0.349,0.609,0.573,�k��,5.5,�L
2021/10/22,22:20,0.566,0.842,0.539,1.036,0.728,0.350,0.609,0.573,�k��,5.5,��
2021/10/22,22:30,0.567,0.843,0.541,1.033,0.726,0.351,0.608,0.574,�k��,5.8,��
2021/10/22,22:40,0.567,0.841,0.540,1.034,0.729,0.351,0.608,0.573,�k��,6.2,��
2021/10/22,22:50,0.566,0.841,0.541,1.034,0.727,0.351,0.606,0.573,�k�k��,7.8,��
2021/10/22,23:00,0.567,0.840,0.540,1.033,0.728,0.352,0.608,0.573,�k�k��,7.5,��
2021/10/22,23:10,0.566,0.841,0.541,1.033,0.729,0.351,0.609,0.572,�k�k��,7.2,��
2021/10/22,23:20,0.567,0.842,0.539,1.034,0.729,0.350,0.608,0.573,�k��,7.5,��
2021/10/22,23:30,0.565,0.841,0.542,1.036,0.727,0.350,0.609,0.572,�k�k��,6.7,��
2021/10/22,23:40,0.566,0.841,0.542,1.036,0.729,0.351,0.608,0.573,�k��,6.8,��
2021/10/22,23:50,0.565,0.841,0.539,1.036,0.729,0.351,0.608,0.573,�k��,6.1,��
